Location: Hajnówka
(52.7352°N, 23.5693°E)
Time: 10:45:26
(UTC+02:00)

ISS - Visible Passes

Search period start: 22 September 2018 00:00
Search period end: 02 October 2018 00:00
Orbit: 403 x 408 km, 51.6° (Epoch: 22 September)

Date Brightness Start Highest point End Pass type
(mag) Time Alt. Az. Time Alt. Az. Time Alt. Az.
22 Sep -1.2 20:28:39 10° SSW 20:28:50 11° SSW 20:28:50 11° SSW visible
23 Sep -2.0 19:37:33 10° S 19:39:34 16° SE 19:39:34 16° SE visible
24 Sep -2.5 20:20:43 10° SW 20:22:48 29° SSW 20:22:48 29° SSW visible
25 Sep -2.6 19:29:11 10° SSW 19:32:01 26° SSE 19:33:12 21° ESE visible
25 Sep -1.3 21:04:55 10° WSW 21:05:53 18° WSW 21:05:53 18° WSW visible
26 Sep -3.6 20:13:04 10° WSW 20:16:08 53° S 20:16:08 53° S visible
27 Sep -3.2 19:21:19 10° SW 19:24:26 41° SSE 19:26:17 21° E visible
27 Sep -1.7 20:57:28 10° W 20:58:58 24° W 20:58:58 24° W visible
28 Sep -3.9 20:05:32 10° WSW 20:08:50 69° S 20:09:02 67° SE visible
29 Sep -3.6 19:13:38 10° WSW 19:16:54 59° SSE 19:19:03 19° E visible
29 Sep -1.9 20:50:01 10° W 20:51:43 28° W 20:51:43 28° W visible
30 Sep -3.9 19:58:02 10° W 20:01:20 75° S 20:01:42 65° SE visible
01 Oct -3.8 19:06:03 10° W 19:09:21 72° S 19:11:39 18° E visible
01 Oct -1.9 20:42:30 10° W 20:44:18 29° W 20:44:18 29° W visible
